Time,TemperatureF,DewpointF,PressureIn,WindDirection,WindDirectionDegrees,WindSpeedMPH,WindSpeedGustMPH,Humidity,HourlyPrecipIn,Conditions,Clouds,dailyrainin,SoftwareType,DateUTC
2013-01-09 00:00:00,54.0,53.0,30.40,North,10,8.0,9.0,95,-99.99,,,-99.99,,2013-01-09 05:00:00,
2013-01-09 00:22:00,54.0,53.0,30.40,North,10,8.0,9.0,95,-99.99,,,-99.99,,2013-01-09 05:22:00,
2013-01-09 00:32:00,54.0,53.0,30.40,North,10,8.0,9.0,95,-99.99,,,-99.99,,2013-01-09 05:32:00,
2013-01-09 00:42:00,54.0,53.0,30.40,North,10,8.0,9.0,95,-99.99,,,-99.99,,2013-01-09 05:42:00,
2013-01-09 00:52:00,54.0,53.0,30.40,North,10,8.0,9.0,95,-99.99,,,-99.99,,2013-01-09 05:52:00,
2013-01-09 01:00:00,53.0,53.0,30.38,North,360,7.0,7.0,96,-99.99,,,-99.99,,2013-01-09 06:00:00,
2013-01-09 01:22:00,53.0,53.0,30.38,North,360,7.0,7.0,96,-99.99,,,-99.99,,2013-01-09 06:22:00,
2013-01-09 01:32:00,53.0,53.0,30.38,North,360,7.0,7.0,96,-99.99,,,-99.99,,2013-01-09 06:32:00,
2013-01-09 01:42:00,53.0,53.0,30.38,North,360,7.0,7.0,96,-99.99,,,-99.99,,2013-01-09 06:42:00,
2013-01-09 01:52:00,53.0,53.0,30.38,North,360,7.0,7.0,96,-99.99,,,-99.99,,2013-01-09 06:52:00,
2013-01-09 02:00:00,54.0,53.0,30.38,North,360,3.0,5.0,96,-99.99,,,-99.99,,2013-01-09 07:00:00,
2013-01-09 02:22:00,54.0,53.0,30.38,North,360,3.0,5.0,96,-99.99,,,-99.99,,2013-01-09 07:22:00,
2013-01-09 02:32:00,54.0,53.0,30.38,North,360,3.0,5.0,96,-99.99,,,-99.99,,2013-01-09 07:32:00,
2013-01-09 02:42:00,54.0,53.0,30.38,North,360,3.0,5.0,96,-99.99,,,-99.99,,2013-01-09 07:42:00,
2013-01-09 02:52:00,54.0,53.0,30.38,North,360,3.0,5.0,96,-99.99,,,-99.99,,2013-01-09 07:52:00,
2013-01-09 03:00:00,55.0,53.0,30.38,North,10,3.0,3.0,94,-99.99,,,-99.99,,2013-01-09 08:00:00,
2013-01-09 03:22:00,55.0,53.0,30.38,North,10,3.0,3.0,94,-99.99,,,-99.99,,2013-01-09 08:22:00,
2013-01-09 03:32:00,55.0,53.0,30.38,North,10,3.0,3.0,94,-99.99,,,-99.99,,2013-01-09 08:32:00,
2013-01-09 03:42:00,55.0,53.0,30.38,North,10,3.0,3.0,94,-99.99,,,-99.99,,2013-01-09 08:42:00,
2013-01-09 03:52:00,55.0,53.0,30.38,North,10,3.0,3.0,94,-99.99,,,-99.99,,2013-01-09 08:52:00,
2013-01-09 04:00:00,55.0,53.0,30.38,North,10,5.0,6.0,93,-99.99,,,-99.99,,2013-01-09 09:00:00,
2013-01-09 04:22:00,55.0,53.0,30.38,North,10,5.0,6.0,93,-99.99,,,-99.99,,2013-01-09 09:22:00,
2013-01-09 04:32:00,55.0,53.0,30.38,North,10,5.0,6.0,93,-99.99,,,-99.99,,2013-01-09 09:32:00,
2013-01-09 04:42:00,55.0,53.0,30.38,North,10,5.0,6.0,93,-99.99,,,-99.99,,2013-01-09 09:42:00,
2013-01-09 04:52:00,55.0,53.0,30.38,North,10,5.0,6.0,93,-99.99,,,-99.99,,2013-01-09 09:52:00,
2013-01-09 05:00:00,54.0,53.0,30.38,North,10,7.0,8.0,93,-99.99,,,-99.99,,2013-01-09 10:00:00,
2013-01-09 05:22:00,54.0,53.0,30.38,North,10,7.0,8.0,93,-99.99,,,-99.99,,2013-01-09 10:22:00,
2013-01-09 05:32:00,54.0,53.0,30.38,North,10,7.0,8.0,93,-99.99,,,-99.99,,2013-01-09 10:32:00,
2013-01-09 05:42:00,54.0,53.0,30.38,North,10,7.0,8.0,93,-99.99,,,-99.99,,2013-01-09 10:42:00,
2013-01-09 05:52:00,54.0,53.0,30.38,North,10,7.0,8.0,93,-99.99,,,-99.99,,2013-01-09 10:52:00,
2013-01-09 06:00:00,55.0,52.0,30.38,NNE,20,9.0,11.0,90,-99.99,,,-99.99,,2013-01-09 11:00:00,
2013-01-09 06:22:00,55.0,52.0,30.38,NNE,20,9.0,11.0,90,-99.99,,,-99.99,,2013-01-09 11:22:00,
2013-01-09 06:32:00,55.0,52.0,30.38,NNE,20,9.0,11.0,90,-99.99,,,-99.99,,2013-01-09 11:32:00,
2013-01-09 06:42:00,55.0,52.0,30.38,NNE,20,9.0,11.0,90,-99.99,,,-99.99,,2013-01-09 11:42:00,
2013-01-09 06:52:00,55.0,52.0,30.38,NNE,20,9.0,11.0,90,-99.99,,,-99.99,,2013-01-09 11:52:00,
2013-01-09 07:00:00,54.0,52.0,30.40,NNE,20,8.0,9.0,92,-99.99,,,-99.99,,2013-01-09 12:00:00,
2013-01-09 07:22:00,54.0,52.0,30.40,NNE,20,8.0,9.0,92,-99.99,,,-99.99,,2013-01-09 12:22:00,
2013-01-09 07:32:00,54.0,52.0,30.40,NNE,20,8.0,9.0,92,-99.99,,,-99.99,,2013-01-09 12:32:00,
2013-01-09 07:42:00,54.0,52.0,30.40,NNE,20,8.0,9.0,92,-99.99,,,-99.99,,2013-01-09 12:42:00,
2013-01-09 07:52:00,54.0,52.0,30.40,NNE,20,8.0,9.0,92,-99.99,,,-99.99,,2013-01-09 12:52:00,
2013-01-09 08:00:00,54.0,53.0,30.43,NNE,20,6.0,7.0,94,-99.99,,,-99.99,,2013-01-09 13:00:00,
2013-01-09 08:22:00,54.0,53.0,30.43,NNE,20,6.0,7.0,94,-99.99,,,-99.99,,2013-01-09 13:22:00,
2013-01-09 08:32:00,54.0,53.0,30.43,NNE,20,6.0,7.0,94,-99.99,,,-99.99,,2013-01-09 13:32:00,
2013-01-09 08:42:00,54.0,53.0,30.43,NNE,20,6.0,7.0,94,-99.99,,,-99.99,,2013-01-09 13:42:00,
2013-01-09 08:52:00,54.0,53.0,30.43,NNE,20,6.0,7.0,94,-99.99,,,-99.99,,2013-01-09 13:52:00,
2013-01-09 09:00:00,55.0,53.0,30.45,North,10,7.0,8.0,94,-99.99,,,-99.99,,2013-01-09 14:00:00,
2013-01-09 09:22:00,55.0,53.0,30.45,North,10,7.0,8.0,94,-99.99,,,-99.99,,2013-01-09 14:22:00,
2013-01-09 09:32:00,55.0,53.0,30.45,North,10,7.0,8.0,94,-99.99,,,-99.99,,2013-01-09 14:32:00,
2013-01-09 09:42:00,55.0,53.0,30.45,North,10,7.0,8.0,94,-99.99,,,-99.99,,2013-01-09 14:42:00,
2013-01-09 09:52:00,55.0,53.0,30.45,North,10,7.0,8.0,94,-99.99,,,-99.99,,2013-01-09 14:52:00,
2013-01-09 10:00:00,56.0,54.0,30.44,NNE,30,11.0,13.0,91,-99.99,,,-99.99,,2013-01-09 15:00:00,
2013-01-09 10:22:00,56.0,54.0,30.44,NNE,30,11.0,13.0,91,-99.99,,,-99.99,,2013-01-09 15:22:00,
2013-01-09 10:32:00,56.0,54.0,30.44,NNE,30,11.0,13.0,91,-99.99,,,-99.99,,2013-01-09 15:32:00,
2013-01-09 10:42:00,56.0,54.0,30.44,NNE,30,11.0,13.0,91,-99.99,,,-99.99,,2013-01-09 15:42:00,
2013-01-09 10:52:00,56.0,54.0,30.44,NNE,30,11.0,13.0,91,-99.99,,,-99.99,,2013-01-09 15:52:00,
2013-01-09 11:00:00,56.0,55.0,30.42,NNE,30,11.0,13.0,96,-99.99,,,-99.99,,2013-01-09 16:00:00,
2013-01-09 11:22:00,56.0,55.0,30.42,NNE,30,11.0,13.0,96,-99.99,,,-99.99,,2013-01-09 16:22:00,
2013-01-09 11:32:00,56.0,55.0,30.42,NNE,30,11.0,13.0,96,-99.99,,,-99.99,,2013-01-09 16:32:00,
2013-01-09 11:42:00,56.0,55.0,30.42,NNE,30,11.0,13.0,96,-99.99,,,-99.99,,2013-01-09 16:42:00,
2013-01-09 11:52:00,56.0,55.0,30.42,NNE,30,11.0,13.0,96,-99.99,,,-99.99,,2013-01-09 16:52:00,
2013-01-09 12:00:00,56.0,55.0,30.40,NNE,30,8.0,9.0,96,-99.99,,,-99.99,,2013-01-09 17:00:00,
2013-01-09 12:22:00,56.0,55.0,30.40,NNE,30,8.0,9.0,96,-99.99,,,-99.99,,2013-01-09 17:22:00,
2013-01-09 12:32:00,56.0,55.0,30.40,NNE,30,8.0,9.0,96,-99.99,,,-99.99,,2013-01-09 17:32:00,
2013-01-09 12:42:00,56.0,55.0,30.40,NNE,30,8.0,9.0,96,-99.99,,,-99.99,,2013-01-09 17:42:00,
2013-01-09 12:52:00,56.0,55.0,30.40,NNE,30,8.0,9.0,96,-99.99,,,-99.99,,2013-01-09 17:52:00,
2013-01-09 13:00:00,59.0,56.0,30.38,NNE,30,9.0,11.0,92,-99.99,,,-99.99,,2013-01-09 18:00:00,
2013-01-09 13:23:00,59.0,56.0,30.38,NNE,30,9.0,11.0,92,-99.99,,,-99.99,,2013-01-09 18:23:00,
2013-01-09 13:32:00,59.0,56.0,30.38,NNE,30,9.0,11.0,92,-99.99,,,-99.99,,2013-01-09 18:32:00,
2013-01-09 13:42:00,59.0,56.0,30.38,NNE,30,9.0,11.0,92,-99.99,,,-99.99,,2013-01-09 18:42:00,
2013-01-09 13:52:00,59.0,56.0,30.38,NNE,30,9.0,11.0,92,-99.99,,,-99.99,,2013-01-09 18:52:00,
2013-01-09 14:00:00,59.0,56.0,30.37,NE,40,9.0,11.0,89,-99.99,,,-99.99,,2013-01-09 19:00:00,
2013-01-09 14:22:00,59.0,56.0,30.37,NE,40,9.0,11.0,89,-99.99,,,-99.99,,2013-01-09 19:22:00,
2013-01-09 14:32:00,59.0,56.0,30.37,NE,40,9.0,11.0,89,-99.99,,,-99.99,,2013-01-09 19:32:00,
2013-01-09 14:42:00,59.0,56.0,30.37,NE,40,9.0,11.0,89,-99.99,,,-99.99,,2013-01-09 19:42:00,
2013-01-09 14:52:00,59.0,56.0,30.37,NE,40,9.0,11.0,89,-99.99,,,-99.99,,2013-01-09 19:52:00,
2013-01-09 15:00:00,59.0,54.0,30.37,NE,40,7.0,8.0,84,-99.99,,,-99.99,,2013-01-09 20:00:00,
2013-01-09 15:22:00,59.0,54.0,30.37,NE,40,7.0,8.0,84,-99.99,,,-99.99,,2013-01-09 20:22:00,
2013-01-09 15:32:00,59.0,54.0,30.37,NE,40,7.0,8.0,84,-99.99,,,-99.99,,2013-01-09 20:32:00,
2013-01-09 15:42:00,59.0,54.0,30.37,NE,40,7.0,8.0,84,-99.99,,,-99.99,,2013-01-09 20:42:00,
2013-01-09 15:52:00,59.0,54.0,30.37,NE,40,7.0,8.0,84,-99.99,,,-99.99,,2013-01-09 20:52:00,
2013-01-09 16:00:00,59.0,54.0,30.37,NNE,30,7.0,8.0,84,-99.99,,,-99.99,,2013-01-09 21:00:00,
2013-01-09 16:22:00,59.0,54.0,30.37,NNE,30,7.0,8.0,84,-99.99,,,-99.99,,2013-01-09 21:22:00,
2013-01-09 16:32:00,59.0,54.0,30.37,NNE,30,7.0,8.0,84,-99.99,,,-99.99,,2013-01-09 21:32:00,
2013-01-09 16:42:00,59.0,54.0,30.37,NNE,30,7.0,8.0,84,-99.99,,,-99.99,,2013-01-09 21:42:00,
2013-01-09 16:52:00,59.0,54.0,30.37,NNE,30,7.0,8.0,84,-99.99,,,-99.99,,2013-01-09 21:52:00,
2013-01-09 17:00:00,58.0,53.0,30.39,North,360,6.0,7.0,82,-99.99,,,-99.99,,2013-01-09 22:00:00,
2013-01-09 17:22:00,58.0,53.0,30.39,North,360,6.0,7.0,82,-99.99,,,-99.99,,2013-01-09 22:22:00,
2013-01-09 17:32:00,58.0,53.0,30.39,North,360,6.0,7.0,82,-99.99,,,-99.99,,2013-01-09 22:32:00,
2013-01-09 17:42:00,58.0,53.0,30.39,North,360,6.0,7.0,82,-99.99,,,-99.99,,2013-01-09 22:42:00,
2013-01-09 17:52:00,58.0,53.0,30.39,North,360,6.0,7.0,82,-99.99,,,-99.99,,2013-01-09 22:52:00,
2013-01-09 18:00:00,61.0,54.0,30.42,North,350,7.0,7.0,78,-99.99,,,-99.99,,2013-01-09 23:00:00,
2013-01-09 18:22:00,61.0,54.0,30.42,North,350,7.0,7.0,78,-99.99,,,-99.99,,2013-01-09 23:22:00,
2013-01-09 18:32:00,61.0,54.0,30.42,North,350,7.0,7.0,78,-99.99,,,-99.99,,2013-01-09 23:32:00,
2013-01-09 18:42:00,61.0,54.0,30.42,North,350,7.0,7.0,78,-99.99,,,-99.99,,2013-01-09 23:42:00,
2013-01-09 18:52:00,61.0,54.0,30.42,North,350,7.0,7.0,78,-99.99,,,-99.99,,2013-01-09 23:52:00,
2013-01-09 19:00:00,59.0,54.0,30.41,East,90,3.0,5.0,83,-99.99,,,-99.99,,2013-01-10 00:00:00,
2013-01-09 19:22:00,59.0,54.0,30.41,East,90,3.0,5.0,83,-99.99,,,-99.99,,2013-01-10 00:22:00,
2013-01-09 19:32:00,59.0,54.0,30.41,East,90,3.0,5.0,83,-99.99,,,-99.99,,2013-01-10 00:32:00,
2013-01-09 19:42:00,59.0,54.0,30.41,East,90,3.0,5.0,83,-99.99,,,-99.99,,2013-01-10 00:42:00,
2013-01-09 19:52:00,59.0,54.0,30.41,East,90,3.0,5.0,83,-99.99,,,-99.99,,2013-01-10 00:52:00,
2013-01-09 20:00:00,61.0,50.0,30.40,ENE,60,6.0,6.0,65,-99.99,,,-99.99,,2013-01-10 01:00:00,
2013-01-09 20:22:00,61.0,50.0,30.40,ENE,60,6.0,6.0,65,-99.99,,,-99.99,,2013-01-10 01:22:00,
2013-01-09 20:32:00,61.0,50.0,30.40,ENE,60,6.0,6.0,65,-99.99,,,-99.99,,2013-01-10 01:32:00,
2013-01-09 20:42:00,61.0,50.0,30.40,ENE,60,6.0,6.0,65,-99.99,,,-99.99,,2013-01-10 01:42:00,
2013-01-09 20:52:00,61.0,50.0,30.40,ENE,60,6.0,6.0,65,-99.99,,,-99.99,,2013-01-10 01:52:00,
2013-01-09 21:00:00,60.0,53.0,30.38,SSE,160,6.0,6.0,76,-99.99,,,-99.99,,2013-01-10 02:00:00,
2013-01-09 21:22:00,60.0,53.0,30.38,SSE,160,6.0,6.0,76,-99.99,,,-99.99,,2013-01-10 02:22:00,
2013-01-09 21:32:00,60.0,53.0,30.38,SSE,160,6.0,6.0,76,-99.99,,,-99.99,,2013-01-10 02:32:00,
2013-01-09 21:42:00,60.0,53.0,30.38,SSE,160,6.0,6.0,76,-99.99,,,-99.99,,2013-01-10 02:42:00,
2013-01-09 21:52:00,60.0,53.0,30.38,SSE,160,6.0,6.0,76,-99.99,,,-99.99,,2013-01-10 02:52:00,
2013-01-09 22:00:00,62.0,58.0,30.38,South,180,2.0,3.0,87,-99.99,,,-99.99,,2013-01-10 03:00:00,
2013-01-09 22:22:00,62.0,58.0,30.38,South,180,2.0,3.0,87,-99.99,,,-99.99,,2013-01-10 03:22:00,
2013-01-09 22:32:00,62.0,58.0,30.38,South,180,2.0,3.0,87,-99.99,,,-99.99,,2013-01-10 03:32:00,
2013-01-09 22:42:00,62.0,58.0,30.38,South,180,2.0,3.0,87,-99.99,,,-99.99,,2013-01-10 03:42:00,
2013-01-09 22:52:00,62.0,58.0,30.38,South,180,2.0,3.0,87,-99.99,,,-99.99,,2013-01-10 03:52:00,
2013-01-09 23:00:00,58.0,56.0,30.40,West,270,5.0,5.0,92,-99.99,,,-99.99,,2013-01-10 04:00:00,
2013-01-09 23:22:00,58.0,56.0,30.40,West,270,5.0,5.0,92,-99.99,,,-99.99,,2013-01-10 04:22:00,
2013-01-09 23:32:00,58.0,56.0,30.40,West,270,5.0,5.0,92,-99.99,,,-99.99,,2013-01-10 04:32:00,
2013-01-09 23:42:00,58.0,56.0,30.40,West,270,5.0,5.0,92,-99.99,,,-99.99,,2013-01-10 04:42:00,
2013-01-09 23:52:00,58.0,56.0,30.40,West,270,5.0,5.0,92,-99.99,,,-99.99,,2013-01-10 04:52:00,